Погода в Курдамире

Погода в Курдамире : погода сейчас, прогноз погоды и архив. Всё, что Вы хотите узнать о погоде в Курдамире!

Поиск расширенной информации на нашем сайте:

Другие новости

Новости СМИ2

Главная страница сайта

Новости сайта

03.07.2017

Напоминаем, что на нашем специализированном сайте Метеоцентр.Азия вы можете получить высокодетализированные автоматические прогнозы погоды по пунктам России, СНГ и мира в авиационном формате (включающие направление и скорость ветра, видимость, явления погоды, количество и форму облачности, нижнюю и верхнюю границу облачности).


Погода в Курдамире - сегодня

Время (UTC), дата Ветер
(°,м/с) 
Видим.   Явления Облачность Т
(°С)
Тd
(°С)
f(%) Тe
(°С)
Pmin
(гПа)
dP
(гПа)
Po
(мм)
O2
(г/м3)
Тmin Tmax R s Состояние
почвы
03 13.08.18 270 (З) 20000 м    10/10 600 м 
[Sc]
+21.8 +16.2 70 +32  1010.9  0.6  758  279           
09 13.08.18 тихо ()   20000 м    9/5 600 м средняя 
[Sc|Ac trans]
+28.9 +15 43 +37  1011.1  -0.3  758  273           
12 13.08.18 120 (ЮВ) 20000 м    9/6 600 м средняя 
[Sc|Ac trans]
+30.6 +13.6 35 +37  1009.7  -1.4  757  272           
15 13.08.18 170 (Ю) 20000 м    10/10 600 м 
[Sc]
+28 +15.1 45 +37  1009.8  0.1  757  274           
21 13.08.18 290 (З) 20000 м    8/4 600 м средняя 
[Sc|Ac trans]
+24.4 +16.1 60 +35  1011.5  0.5  758  277           
00 14.08.18 110 (В) 20000 м    8/4 600 м средняя 
[Sc|Ac trans]
+23.7 +16.5 64 +35  1011.9  0.4  759  278           
03 14.08.18 270 (З) 20000 м    10/10 600 м 
[Sc]
+23.3 +17.8 71 +37  1012.9  759  278           
09 14.08.18 030 (СВ) 20000 м    9/8 600 м средняя 
[Sc|Ac trans]
+27.2 +16.2 51 +38  1013.3  -0.7  760  275           
12 14.08.18 250 (З) 20000 м    8/8 600 м 
[Cu med, cong]
+30.1 +15.8 42 +40  1011.8  -1.5  758  272           
15 14.08.18 330 (СЗ) 20000 м    9/8 600 м средняя 
[Sc|Ac trans]
+28.9 +16.4 47 +40  1011.9  0.1  759  273           
18 14.08.18 250 (З) 20000 м    10/10 600 м 
[Sc]
+26.7 +14.1 46 +34  1013.7  1.8  760  276    +30.6       
21 14.08.18 320 (СЗ) 20000 м    10/10 600 м 
[Sc]
+24.3 +16.9 63 +36  1014.2  0.5  760  278           
00 15.08.18 190 (Ю) 20000 м    10/10 600 м 
[Sc]
+22.7 +17.2 71 +35  1013.4  -0.8  760  279           
03 15.08.18 270 (З) 20000 м    10/10 600 м 
[Sc]
+23.3 +15.8 63 +33  1013.9  0.5  760  279           
09 15.08.18 220 (ЮЗ) 20000 м    9/9 600 м 
[Sc]
+27.3 +14.8 46 +35  1014.3  -0.7  760  276           
12 15.08.18 тихо ()   20000 м    9/9 600 м 
[Sc]
+28.1 +13.7 41 +34  1013.8  760  275           
15 15.08.18 180 (Ю) 20000 м    9/8 600 м средняя 
[Sc|Ac trans]
+27.3 +16.1 50 +38  1013.1  -0.5  759  275           
21 15.08.18 180 (Ю) 20000 м    8/4 600 м средняя 
[Sc|Ac trans]
+24.5 +16 59 +35  1014.9  0.4  761  278           
00 16.08.18 080 (В) 20000 м    8/4 600 м средняя 
[Sc|Ac trans]
+22.9 +16.2 66 +33  1014.9  761  279           
03 16.08.18 090 (В) 20000 м    9/5 600 м средняя 
[Sc|Ac trans]
+22.9 +16.5 67 +34  1015.2  0.3  761  279           
06 16.08.18 тихо ()   20000 м    9/6 600 м средняя 
[Sc|Ac trans]
+25.9 +17.1 58 +38  1015.8  0.6  761  277  +22.8         
09 16.08.18 330 (СЗ) 20000 м    4/0 средняя 
[Ac trans]
+30.6 +15.4 40 +40  1014.1  -1.7  760  272           
12 16.08.18 170 (Ю) 20000 м    ясно 
+32.9 +13.7 31 +39  1011.5  -2.6  758  270           
15 16.08.18 190 (Ю) 20000 м    ясно 
+32.1 +14.8 35 +40  1011  -0.5  758  270           
21 16.08.18 090 (В) 20000 м    ясно 
+23.7 +17.6 69 +37  1011.8  -0.3  758  277           
Время (UTC), дата Ветер
(°,м/с) 
Видим.   Явления Облачность Т
(°С)
Тd
(°С)
f(%) Тe
(°С)
Pmin
(гПа)
dP
(гПа)
Po
(мм)
O2
(г/м3)
Тmin Tmax R s Состояние
почвы

Для получения пояснительной информации подведите курсор к названию столбца.

ПОГОДА в Курдамире - архив

Всё, что Вы хотите узнать о погоде в Курдамире - удобно и подробно!

Выберите нужную дату (начиная с 1 января 2015* года) и нажмите кнопку "Найти".
Будут отображены архивные сводки погоды по пункту Курдамир, начиная с указанной даты.


Отображать данные в формате CSV (для использования в таблицах Excel)


Внимание! Наш архив погоды предназначен исключительно для личного некоммерческого использования в познавательных целях. Если Вам необходимы официальные справки о состоянии погоды (для производственных, юридических, коммерческих и т.п. целей), обращайтесь в органы Росгидромета.

*Примечание: данная дата относится к архиву по метеостанциям СССР (Россия, СНГ, Балтия).
Архив по метеостанциям Зарубежной Европы и Азии (кроме Китая) хранится 10 дней, по другим регионам земного шара (Китай, Африка, Америка, Австралия, Океания) - 1 день.

Курдамир - район местоположения метеостанции


Название, широта, долгота, высота метеостанции:
Курдамир 40.3°ш. 48.2°д. 4 м над ур. моря [Азербайджан]

Дополнительная информация

В oтличие oт бoльшинства пoгoдных сайтoв мы публикуем пoдрoбную метеoинфoрмацию в детальнoм прoфессиoнальнoм фoрмате.

Характеристики температуры и влажнoсти вoздуха измеряются на высoте 2 м в тени вдали oт зданий и деревьев.
Скoрoсть ветра измеряется на высoте 10 м (на урoвне рoста челoвека скoрoсть ветра ниже в 1.5-2 раза). Если метеoстанция нахoдится в гoрoде или в лесу, тo скoрoсть ветра занижена на 2-4 м/с пo сравнению с oткрытым местoм. Скoрoсть ветра над акватoриями крупных рек и oзёр, а также на вершинах хoлмoв на 2-5 м/с выше, чем в oбычных услoвиях.
Атмoсфернoе давление в разных тoчках местнoсти мoжет значительнo oтличаться oт давления на метеoстанции, в зависимoсти oт услoвий рельефа (при пoдъёме на 10 м давление пoнижается примернo на 1 мм рт.ст.).